| time (UTC) | temp C | wind direction | speed KPH | gust KPH | rain 1hr cm | rain 24hr cm | rain mn cm | humidity % | barometer mb |
| 20260901000255 | -17 | 0.0 | 0.0 | 0.00 | 0.00 | 0.00 | 1023.6 | ||
| 20260831235753 | -17 | 0.0 | 0.0 | 0.00 | 0.00 | 0.00 | 1023.4 | ||
| 20260831235250 | -17 | 0.0 | 0.0 | 0.00 | 0.00 | 0.00 | 1023.6 | ||
| 20260831234750 | -17 | 0.0 | 0.0 | 0.00 | 0.00 | 0.00 | 1023.4 | ||
| 20260831234249 | -17 | 0.0 | 0.0 | 0.00 | 0.00 | 0.00 | 1023.6 | ||
| 20260831233745 | -17 | 0.0 | 0.0 | 0.00 | 0.00 | 0.00 | 1023.3 | ||
| 20260831233240 | -17 | 0.0 | 0.0 | 0.00 | 0.00 | 0.00 | 1023.3 | ||
| 20260831232740 | -17 | 0.0 | 0.0 | 0.00 | 0.00 | 0.00 | 1023.3 | ||
| 20260831232237 | -17 | 0.0 | 0.0 | 0.00 | 0.00 | 0.00 | 1023.6 | ||
| 20260831231732 | -17 | 0.0 | 0.0 | 0.00 | 0.00 | 0.00 | 1023.2 | ||
| 20260831231229 | -17 | 0.0 | 0.0 | 0.00 | 0.00 | 0.00 | 1023.3 | ||
| 20260831230724 | -17 | 0.0 | 0.0 | 0.00 | 0.00 | 0.00 | 1023.4 | ||
| 20260831230219 | -17 | 0.0 | 0.0 | 0.00 | 0.00 | 0.00 | 1023.2 | ||
| 20260831225718 | -17 | 0.0 | 0.0 | 0.00 | 0.00 | 0.00 | 1023.4 | ||
| 20260831225213 | -17 | 0.0 | 0.0 | 0.00 | 0.00 | 0.00 | 1023.3 | ||
| 20260831224708 | -17 | 0.0 | 0.0 | 0.00 | 0.00 | 0.00 | 1023.4 | ||
| 20260831224204 | -17 | 0.0 | 0.0 | 0.00 | 0.00 | 0.00 | 1023.4 | ||
| 20260831223659 | -17 | 0.0 | 0.0 | 0.00 | 0.00 | 0.00 | 1023.6 | ||
| 20260831223155 | 18 | 240 | 4.8 | 4.8 | 0.00 | 0.00 | 0.00 | 83 | 1023.7 |
| 20260831222651 | 18 | 240 | 4.8 | 4.8 | 0.00 | 0.00 | 0.00 | 83 | 1023.7 |
| 20260831222146 | 18 | 241 | 6.4 | 8.0 | 0.00 | 0.00 | 0.00 | 83 | 1023.7 |
| 20260831221642 | 17 | 298 | 4.8 | 8.0 | 0.00 | 0.00 | 0.00 | 85 | 1023.7 |
| 20260831221137 | -17 | 0.0 | 0.0 | 0.00 | 0.00 | 0.00 | 1023.8 | ||
| 20260831220632 | -17 | 0.0 | 0.0 | 0.00 | 0.00 | 0.00 | 1023.9 | ||
| 20260831220127 | -17 | 0.0 | 0.0 | 0.00 | 0.00 | 0.00 | 1023.8 | ||
| 20260831215622 | -17 | 0.0 | 0.0 | 0.00 | 0.00 | 0.00 | 1024.3 | ||
| 20260831215118 | 17 | 248 | 3.2 | 4.8 | 0.00 | 0.00 | 0.00 | 85 | 1024.4 |
| 20260831214615 | 17 | 248 | 3.2 | 4.8 | 0.00 | 0.00 | 0.00 | 85 | 1024.4 |
| 20260831214111 | 17 | 203 | 0.0 | 0.0 | 0.00 | 0.00 | 0.00 | 84 | 1024.1 |
| 20260831213608 | 17 | 197 | 4.8 | 4.8 | 0.00 | 0.00 | 0.00 | 83 | 1024.4 |
| 20260831213103 | 17 | 169 | 4.8 | 4.8 | 0.00 | 0.00 | 0.00 | 84 | 1024.4 |
| 20260831212559 | 17 | 145 | 8.0 | 8.0 | 0.00 | 0.00 | 0.00 | 83 | 1024.4 |
| 20260831212055 | 17 | 166 | 11.3 | 14.5 | 0.00 | 0.00 | 0.00 | 82 | 1024.6 |
| 20260831211554 | -17 | 0.0 | 0.0 | 0.00 | 0.00 | 0.00 | 1024.5 | ||
| 20260831211054 | -17 | 0.0 | 0.0 | 0.00 | 0.00 | 0.00 | 1024.4 | ||
| 20260831210549 | -17 | 0.0 | 0.0 | 0.00 | 0.00 | 0.00 | 1024.4 | ||
| 20260831210045 | 18 | 95 | 20.9 | 25.7 | 0.00 | 0.00 | 0.00 | 73 | 1024.4 |
| 20260831205544 | 18 | 95 | 20.9 | 25.7 | 0.00 | 0.00 | 0.00 | 73 | 1024.3 |
| 20260831205041 | 20 | 94 | 19.3 | 22.5 | 0.00 | 0.00 | 0.00 | 59 | 1024.1 |
| 20260831204535 | 21 | 115 | 14.5 | 17.7 | 0.00 | 0.00 | 0.00 | 60 | 1024.1 |
| 20260831204034 | 23 | 147 | 3.2 | 4.8 | 0.00 | 0.00 | 0.00 | 44 | 1023.9 |
| 20260831203529 | 23 | 168 | 8.0 | 11.3 | 0.00 | 0.00 | 0.00 | 43 | 1023.7 |
| 20260831203028 | 23 | 180 | 11.3 | 12.9 | 0.00 | 0.00 | 0.00 | 44 | 1023.8 |
| 20260831202527 | 23 | 172 | 6.4 | 8.0 | 0.00 | 0.00 | 0.00 | 44 | 1023.7 |
| 20260831202027 | -17 | 0.0 | 0.0 | 0.00 | 0.00 | 0.00 | 1024.1 | ||
| 20260831201526 | -17 | 0.0 | 0.0 | 0.00 | 0.00 | 0.00 | 1024.0 | ||
| 20260831201022 | -17 | 0.0 | 0.0 | 0.00 | 0.00 | 0.00 | 1023.8 | ||
| 20260831200518 | -17 | 0.0 | 0.0 | 0.00 | 0.00 | 0.00 | 1023.6 | ||
| 20260831200017 | -17 | 0.0 | 0.0 | 0.00 | 0.00 | 0.00 | 1023.6 | ||
| 20260831195513 | -17 | 0.0 | 0.0 | 0.00 | 0.00 | 0.00 | 1023.6 | ||
| 20260831195013 | -17 | 0.0 | 0.0 | 0.00 | 0.00 | 0.00 | 1023.4 | ||
| 20260831194508 | 23 | 195 | 8.0 | 11.3 | 0.00 | 0.00 | 0.00 | 43 | 1023.3 |
| 20260831194008 | 23 | 195 | 8.0 | 11.3 | 0.00 | 0.00 | 0.00 | 43 | 1023.6 |
| 20260831193504 | 23 | 197 | 12.9 | 16.1 | 0.00 | 0.00 | 0.00 | 43 | 1023.6 |
| 20260831192958 | 24 | 212 | 19.3 | 22.5 | 0.00 | 0.00 | 0.00 | 41 | 1023.6 |
| 20260831192453 | 24 | 212 | 19.3 | 22.5 | 0.00 | 0.00 | 0.00 | 41 | 1023.6 |
| 20260831191948 | 24 | 220 | 11.3 | 12.9 | 0.00 | 0.00 | 0.00 | 41 | 1023.3 |
| 20260831191444 | 24 | 242 | 11.3 | 16.1 | 0.00 | 0.00 | 0.00 | 41 | 1023.3 |
| 20260831190941 | 24 | 242 | 11.3 | 16.1 | 0.00 | 0.00 | 0.00 | 41 | 1023.3 |
| 20260831190435 | 24 | 214 | 16.1 | 22.5 | 0.00 | 0.00 | 0.00 | 41 | 1023.2 |
| 20260831185934 | 25 | 193 | 11.3 | 16.1 | 0.00 | 0.00 | 0.00 | 41 | 1023.3 |
| 20260831185430 | 24 | 204 | 14.5 | 16.1 | 0.00 | 0.00 | 0.00 | 42 | 1023.2 |
| 20260831184925 | 24 | 194 | 17.7 | 22.5 | 0.00 | 0.00 | 0.00 | 42 | 1023.4 |
| 20260831184425 | -17 | 0.0 | 0.0 | 0.00 | 0.00 | 0.00 | 1023.4 | ||
| 20260831183920 | -17 | 0.0 | 0.0 | 0.00 | 0.00 | 0.00 | 1023.7 | ||
| 20260831183420 | -17 | 0.0 | 0.0 | 0.00 | 0.00 | 0.00 | 1023.7 | ||
| 20260831182919 | 24 | 186 | 12.9 | 16.1 | 0.00 | 0.00 | 0.00 | 43 | 1023.6 |
| 20260831182415 | 24 | 186 | 12.9 | 16.1 | 0.00 | 0.00 | 0.00 | 43 | 1023.6 |
| 20260831181910 | -17 | 0.0 | 0.0 | 0.00 | 0.00 | 0.00 | 1023.8 | ||
| 20260831181405 | 23 | 198 | 8.0 | 9.7 | 0.00 | 0.00 | 0.00 | 45 | 1023.7 |
| 20260831180900 | 23 | 198 | 8.0 | 9.7 | 0.00 | 0.00 | 0.00 | 45 | 1023.7 |
| 20260831180400 | 23 | 187 | 4.8 | 8.0 | 0.00 | 0.00 | 0.00 | 44 | 1023.7 |
| 20260831175859 | 23 | 226 | 4.8 | 4.8 | 0.00 | 0.00 | 0.00 | 45 | 1024.0 |
| 20260831175356 | 23 | 174 | 4.8 | 4.8 | 0.00 | 0.00 | 0.00 | 45 | 1024.0 |
| 20260831174852 | 23 | 188 | 4.8 | 4.8 | 0.00 | 0.00 | 0.00 | 45 | 1024.3 |
| 20260831174347 | 23 | 196 | 4.8 | 4.8 | 0.00 | 0.00 | 0.00 | 45 | 1024.1 |
| 20260831173845 | 23 | 218 | 4.8 | 4.8 | 0.00 | 0.00 | 0.00 | 45 | 1024.1 |
| 20260831173340 | 23 | 268 | 3.2 | 3.2 | 0.00 | 0.00 | 0.00 | 44 | 1024.3 |
| 20260831172835 | 23 | 247 | 4.8 | 4.8 | 0.00 | 0.00 | 0.00 | 46 | 1024.1 |
| 20260831172331 | 23 | 290 | 4.8 | 8.0 | 0.00 | 0.00 | 0.00 | 45 | 1024.3 |
| 20260831171830 | -17 | 0.0 | 0.0 | 0.00 | 0.00 | 0.00 | 1024.3 | ||
| 20260831171327 | 22 | 198 | 1.6 | 3.2 | 0.00 | 0.00 | 0.00 | 49 | 1024.3 |
| 20260831170823 | 22 | 198 | 1.6 | 3.2 | 0.00 | 0.00 | 0.00 | 49 | 1024.5 |
| 20260831170319 | 22 | 213 | 1.6 | 3.2 | 0.00 | 0.00 | 0.00 | 50 | 1024.4 |
| 20260831165816 | -17 | 0.0 | 0.0 | 0.00 | 0.00 | 0.00 | 1024.3 | ||
| 20260831165312 | -17 | 0.0 | 0.0 | 0.00 | 0.00 | 0.00 | 1024.1 | ||
| 20260831164808 | -17 | 0.0 | 0.0 | 0.00 | 0.00 | 0.00 | 1024.4 | ||
| 20260831164304 | -17 | 0.0 | 0.0 | 0.00 | 0.00 | 0.00 | 1024.3 | ||
| 20260831163759 | -17 | 0.0 | 0.0 | 0.00 | 0.00 | 0.00 | 1024.4 | ||
| 20260831163254 | -17 | 0.0 | 0.0 | 0.00 | 0.00 | 0.00 | 1024.4 | ||
| 20260831162753 | -17 | 0.0 | 0.0 | 0.00 | 0.00 | 0.00 | 1024.1 | ||
| 20260831162248 | -17 | 0.0 | 0.0 | 0.00 | 0.00 | 0.00 | 1024.5 | ||
| 20260831161742 | 18 | 199 | 1.6 | 1.6 | 0.00 | 0.00 | 0.00 | 59 | 1024.4 |
| 20260831161238 | 18 | 199 | 1.6 | 1.6 | 0.00 | 0.00 | 0.00 | 59 | 1024.5 |
| 20260831160738 | 18 | 215 | 1.6 | 1.6 | 0.00 | 0.00 | 0.00 | 59 | 1024.1 |
| 20260831160233 | 18 | 198 | 3.2 | 4.8 | 0.00 | 0.00 | 0.00 | 59 | 1024.1 |
| 20260831155732 | 18 | 229 | 1.6 | 1.6 | 0.00 | 0.00 | 0.00 | 60 | 1024.1 |
| 20260831155228 | 18 | 205 | 0.0 | 1.6 | 0.00 | 0.00 | 0.00 | 61 | 1024.0 |
| 20260831154724 | 18 | 193 | 1.6 | 1.6 | 0.00 | 0.00 | 0.00 | 60 | 1024.1 |
| 20260831154220 | 18 | 204 | 1.6 | 1.6 | 0.00 | 0.00 | 0.00 | 60 | 1023.9 |
| 20260831153719 | 18 | 197 | 1.6 | 1.6 | 0.00 | 0.00 | 0.00 | 58 | 1023.8 |
| 20260831153214 | 18 | 204 | 0.0 | 0.0 | 0.00 | 0.00 | 0.00 | 60 | 1023.6 |
| 20260831152710 | 18 | 205 | 0.0 | 0.0 | 0.00 | 0.00 | 0.00 | 58 | 1023.6 |
| 20260831152206 | 18 | 219 | 0.0 | 0.0 | 0.00 | 0.00 | 0.00 | 58 | 1023.7 |
| 20260831151706 | 18 | 205 | 0.0 | 0.0 | 0.00 | 0.00 | 0.00 | 59 | 1023.6 |
| 20260831151200 | 18 | 202 | 0.0 | 1.6 | 0.00 | 0.00 | 0.00 | 60 | 1023.7 |
| 20260831150655 | 18 | 204 | 0.0 | 0.0 | 0.00 | 0.00 | 0.00 | 58 | 1023.6 |
| 20260831150151 | 18 | 214 | 0.0 | 0.0 | 0.00 | 0.00 | 0.00 | 59 | 1023.4 |
| 20260831145650 | 17 | 202 | 0.0 | 0.0 | 0.00 | 0.00 | 0.00 | 60 | 1023.6 |
| 20260831145147 | 17 | 207 | 0.0 | 0.0 | 0.00 | 0.00 | 0.00 | 61 | 1023.7 |
| 20260831144642 | 17 | 197 | 0.0 | 0.0 | 0.00 | 0.00 | 0.00 | 61 | 1023.6 |
| 20260831144138 | 17 | 205 | 0.0 | 0.0 | 0.00 | 0.00 | 0.00 | 61 | 1023.9 |
| 20260831143637 | 17 | 202 | 0.0 | 0.0 | 0.00 | 0.00 | 0.00 | 61 | 1023.8 |
| 20260831143132 | 16 | 207 | 0.0 | 0.0 | 0.00 | 0.00 | 0.00 | 63 | 1023.8 |
| 20260831142629 | 16 | 196 | 0.0 | 0.0 | 0.00 | 0.00 | 0.00 | 63 | 1023.8 |
| 20260831142124 | 16 | 258 | 1.6 | 1.6 | 0.00 | 0.00 | 0.00 | 64 | 1024.0 |
| 20260831141623 | 16 | 215 | 0.0 | 0.0 | 0.00 | 0.00 | 0.00 | 64 | 1023.8 |
| 20260831141118 | 16 | 242 | 1.6 | 3.2 | 0.00 | 0.00 | 0.00 | 63 | 1023.8 |
| 20260831140617 | 16 | 242 | 1.6 | 3.2 | 0.00 | 0.00 | 0.00 | 63 | 1023.7 |
| 20260831140113 | 16 | 244 | 3.2 | 3.2 | 0.00 | 0.00 | 0.00 | 63 | 1024.0 |
| 20260831135610 | 16 | 233 | 1.6 | 3.2 | 0.00 | 0.00 | 0.00 | 64 | 1023.8 |
| 20260831135106 | 17 | 223 | 1.6 | 3.2 | 0.00 | 0.00 | 0.00 | 64 | 1023.8 |
| 20260831134602 | 16 | 205 | 0.0 | 0.0 | 0.00 | 0.00 | 0.00 | 66 | 1023.6 |
| 20260831134101 | 15 | 208 | 0.0 | 0.0 | 0.00 | 0.00 | 0.00 | 69 | 1023.7 |
| 20260831133601 | 15 | 205 | 0.0 | 0.0 | 0.00 | 0.00 | 0.00 | 70 | 1023.6 |
| 20260831133056 | 15 | 202 | 0.0 | 0.0 | 0.00 | 0.00 | 0.00 | 72 | 1023.7 |
| 20260831132553 | 15 | 201 | 0.0 | 0.0 | 0.00 | 0.00 | 0.00 | 72 | 1023.4 |
| 20260831132051 | 14 | 191 | 0.0 | 1.6 | 0.00 | 0.00 | 0.00 | 73 | 1023.4 |
| 20260831131546 | 13 | 202 | 0.0 | 0.0 | 0.00 | 0.00 | 0.00 | 74 | 1023.2 |
| 20260831131042 | 13 | 206 | 0.0 | 0.0 | 0.00 | 0.00 | 0.00 | 76 | 1023.3 |
| 20260831130537 | 13 | 205 | 0.0 | 0.0 | 0.00 | 0.00 | 0.00 | 78 | 1023.1 |
| 20260831130033 | 12 | 209 | 0.0 | 0.0 | 0.00 | 0.00 | 0.00 | 78 | 1023.1 |
| 20260831125532 | 12 | 206 | 0.0 | 0.0 | 0.00 | 0.00 | 0.00 | 79 | 1022.8 |
| 20260831125027 | 12 | 201 | 0.0 | 0.0 | 0.00 | 0.00 | 0.00 | 78 | 1023.0 |
| 20260831124524 | 12 | 214 | 0.0 | 0.0 | 0.00 | 0.00 | 0.00 | 77 | 1023.0 |
| 20260831124020 | 12 | 200 | 0.0 | 0.0 | 0.00 | 0.00 | 0.00 | 77 | 1022.8 |
| 20260831123519 | 13 | 151 | 3.2 | 3.2 | 0.00 | 0.00 | 0.00 | 76 | 1022.7 |
| 20260831123014 | 13 | 151 | 4.8 | 4.8 | 0.00 | 0.00 | 0.00 | 76 | 1022.5 |
| 20260831122513 | 13 | 170 | 3.2 | 3.2 | 0.00 | 0.00 | 0.00 | 77 | 1023.0 |
| 20260831122009 | 13 | 196 | 0.0 | 0.0 | 0.00 | 0.00 | 0.00 | 76 | 1022.8 |
| 20260831121504 | 13 | 202 | 0.0 | 0.0 | 0.00 | 0.00 | 0.00 | 75 | 1023.0 |
| 20260831121000 | 13 | 225 | 0.0 | 0.0 | 0.00 | 0.00 | 0.00 | 75 | 1022.8 |
| 20260831120459 | 12 | 207 | 0.0 | 1.6 | 0.00 | 0.00 | 0.00 | 79 | 1023.0 |
| 20260831120000 | 13 | 199 | 0.0 | 0.0 | 0.00 | 0.00 | 0.00 | 80 | 1023.0 |
| 20260831115456 | 13 | 251 | 1.6 | 1.6 | 0.00 | 0.00 | 0.00 | 79 | 1022.7 |
| 20260831114956 | 13 | 203 | 0.0 | 0.0 | 0.00 | 0.00 | 0.00 | 80 | 1022.7 |
| 20260831114455 | 12 | 209 | 0.0 | 1.6 | 0.00 | 0.00 | 0.00 | 80 | 1023.1 |
| 20260831113951 | 12 | 245 | 1.6 | 3.2 | 0.00 | 0.00 | 0.00 | 79 | 1023.2 |
| 20260831113450 | 12 | 194 | 0.0 | 0.0 | 0.00 | 0.00 | 0.00 | 78 | 1023.0 |
| 20260831112946 | 12 | 203 | 0.0 | 0.0 | 0.00 | 0.00 | 0.00 | 78 | 1023.2 |
| 20260831112445 | 13 | 204 | 0.0 | 0.0 | 0.00 | 0.00 | 0.00 | 78 | 1023.1 |
| 20260831111940 | 12 | 200 | 0.0 | 0.0 | 0.00 | 0.00 | 0.00 | 78 | 1023.0 |
| 20260831111436 | 13 | 203 | 0.0 | 0.0 | 0.00 | 0.00 | 0.00 | 77 | 1023.1 |
| 20260831110932 | 13 | 186 | 0.0 | 0.0 | 0.00 | 0.00 | 0.00 | 77 | 1022.8 |
| 20260831110427 | 13 | 200 | 0.0 | 0.0 | 0.00 | 0.00 | 0.00 | 77 | 1023.1 |
| 20260831105926 | 13 | 191 | 0.0 | 0.0 | 0.00 | 0.00 | 0.00 | 78 | 1023.2 |
| 20260831105421 | 13 | 178 | 1.6 | 1.6 | 0.00 | 0.00 | 0.00 | 77 | 1023.1 |
| 20260831104916 | 13 | 186 | 0.0 | 0.0 | 0.00 | 0.00 | 0.00 | 78 | 1023.2 |
| 20260831104412 | 13 | 188 | 0.0 | 0.0 | 0.00 | 0.00 | 0.00 | 79 | 1023.1 |
| 20260831103908 | 13 | 203 | 0.0 | 0.0 | 0.00 | 0.00 | 0.00 | 79 | 1023.2 |
| 20260831103403 | 13 | 233 | 1.6 | 1.6 | 0.00 | 0.00 | 0.00 | 77 | 1023.4 |
| 20260831102904 | 13 | 211 | 0.0 | 0.0 | 0.00 | 0.00 | 0.00 | 78 | 1023.7 |
| 20260831102403 | 13 | 219 | 0.0 | 0.0 | 0.00 | 0.00 | 0.00 | 77 | 1023.6 |
| 20260831101859 | 13 | 202 | 0.0 | 0.0 | 0.00 | 0.00 | 0.00 | 78 | 1023.4 |
| 20260831101354 | 13 | 205 | 0.0 | 0.0 | 0.00 | 0.00 | 0.00 | 78 | 1023.3 |
| 20260831100850 | 13 | 205 | 0.0 | 0.0 | 0.00 | 0.00 | 0.00 | 75 | 1023.4 |
| 20260831100346 | 13 | 143 | 4.8 | 4.8 | 0.00 | 0.00 | 0.00 | 75 | 1023.4 |
| 20260831095845 | 13 | 179 | 1.6 | 3.2 | 0.00 | 0.00 | 0.00 | 78 | 1023.6 |
| 20260831095345 | 13 | 188 | 0.0 | 0.0 | 0.00 | 0.00 | 0.00 | 77 | 1023.4 |
| 20260831094840 | 13 | 203 | 0.0 | 0.0 | 0.00 | 0.00 | 0.00 | 76 | 1023.2 |
| 20260831094336 | 14 | 213 | 0.0 | 0.0 | 0.00 | 0.00 | 0.00 | 76 | 1023.1 |
| 20260831093832 | 13 | 205 | 0.0 | 0.0 | 0.00 | 0.00 | 0.00 | 77 | 1023.3 |
| 20260831093327 | 13 | 215 | 0.0 | 0.0 | 0.00 | 0.00 | 0.00 | 79 | 1022.8 |
| 20260831092823 | 13 | 203 | 0.0 | 0.0 | 0.00 | 0.00 | 0.00 | 78 | 1023.1 |
| 20260831092319 | 13 | 203 | 0.0 | 0.0 | 0.00 | 0.00 | 0.00 | 78 | 1023.0 |
| 20260831091814 | 13 | 203 | 0.0 | 0.0 | 0.00 | 0.00 | 0.00 | 77 | 1023.1 |
| 20260831091309 | 13 | 210 | 0.0 | 0.0 | 0.00 | 0.00 | 0.00 | 75 | 1023.0 |
| 20260831090804 | 13 | 184 | 0.0 | 1.6 | 0.00 | 0.00 | 0.00 | 75 | 1023.0 |
| 20260831090300 | 13 | 200 | 1.6 | 1.6 | 0.00 | 0.00 | 0.00 | 78 | 1023.2 |
| 20260831085756 | 13 | 197 | 0.0 | 1.6 | 0.00 | 0.00 | 0.00 | 77 | 1023.0 |
| 20260831085251 | 13 | 201 | 0.0 | 0.0 | 0.00 | 0.00 | 0.00 | 79 | 1023.0 |
| 20260831084745 | 13 | 202 | 0.0 | 0.0 | 0.00 | 0.00 | 0.00 | 79 | 1022.7 |
| 20260831084242 | 13 | 205 | 0.0 | 0.0 | 0.00 | 0.00 | 0.00 | 79 | 1022.8 |
| 20260831083738 | 13 | 206 | 0.0 | 0.0 | 0.00 | 0.00 | 0.00 | 79 | 1022.8 |
| 20260831083233 | 13 | 203 | 0.0 | 0.0 | 0.00 | 0.00 | 0.00 | 80 | 1023.0 |
| 20260831082732 | 13 | 203 | 0.0 | 0.0 | 0.00 | 0.00 | 0.00 | 79 | 1023.2 |
| 20260831082227 | 13 | 243 | 1.6 | 3.2 | 0.00 | 0.00 | 0.00 | 80 | 1023.1 |
| 20260831081723 | 13 | 229 | 1.6 | 1.6 | 0.00 | 0.00 | 0.00 | 80 | 1023.0 |
| 20260831081218 | 13 | 194 | 0.0 | 0.0 | 0.00 | 0.00 | 0.00 | 81 | 1023.1 |
| 20260831080714 | 13 | 201 | 0.0 | 0.0 | 0.00 | 0.00 | 0.00 | 81 | 1023.3 |
| 20260831080213 | 13 | 214 | 0.0 | 0.0 | 0.00 | 0.00 | 0.00 | 81 | 1023.3 |
| 20260831075710 | 13 | 208 | 0.0 | 0.0 | 0.00 | 0.00 | 0.00 | 81 | 1023.2 |
| 20260831075205 | 13 | 214 | 0.0 | 1.6 | 0.00 | 0.00 | 0.00 | 81 | 1023.4 |
| 20260831074704 | 13 | 235 | 3.2 | 3.2 | 0.00 | 0.00 | 0.00 | 81 | 1023.4 |
| 20260831074204 | 13 | 214 | 1.6 | 1.6 | 0.00 | 0.00 | 0.00 | 81 | 1023.4 |
| 20260831073659 | 13 | 212 | 0.0 | 0.0 | 0.00 | 0.00 | 0.00 | 81 | 1023.2 |
| 20260831073159 | 13 | 214 | 0.0 | 1.6 | 0.00 | 0.00 | 0.00 | 81 | 1023.4 |
| 20260831072654 | 13 | 257 | 4.8 | 4.8 | 0.00 | 0.00 | 0.00 | 80 | 1023.3 |
| 20260831072151 | 13 | 209 | 0.0 | 1.6 | 0.00 | 0.00 | 0.00 | 80 | 1023.3 |
| 20260831071649 | 13 | 206 | 0.0 | 0.0 | 0.00 | 0.00 | 0.00 | 78 | 1023.6 |
| 20260831071144 | 13 | 206 | 0.0 | 0.0 | 0.00 | 0.00 | 0.00 | 78 | 1023.2 |
| 20260831070639 | 13 | 210 | 0.0 | 0.0 | 0.00 | 0.00 | 0.00 | 78 | 1023.4 |
| 20260831070133 | 13 | 200 | 0.0 | 0.0 | 0.00 | 0.00 | 0.00 | 78 | 1023.6 |
| 20260831065632 | 13 | 190 | 0.0 | 0.0 | 0.00 | 0.00 | 0.00 | 77 | 1023.4 |
| 20260831065131 | 13 | 153 | 3.2 | 3.2 | 0.00 | 0.00 | 0.00 | 78 | 1023.6 |
| 20260831064626 | 13 | 133 | 3.2 | 3.2 | 0.00 | 0.00 | 0.00 | 78 | 1023.4 |
| 20260831064121 | 13 | 184 | 0.0 | 0.0 | 0.00 | 0.00 | 0.00 | 78 | 1023.6 |
| 20260831063617 | 13 | 202 | 0.0 | 0.0 | 0.00 | 0.00 | 0.00 | 78 | 1023.3 |
| 20260831063112 | 13 | 196 | 0.0 | 0.0 | 0.00 | 0.00 | 0.00 | 79 | 1023.6 |
| 20260831062607 | 13 | 202 | 0.0 | 0.0 | 0.00 | 0.00 | 0.00 | 79 | 1023.6 |
| 20260831062106 | 13 | 193 | 0.0 | 0.0 | 0.00 | 0.00 | 0.00 | 77 | 1023.4 |
| 20260831061604 | 13 | 207 | 0.0 | 0.0 | 0.00 | 0.00 | 0.00 | 77 | 1023.3 |
| 20260831061101 | 13 | 208 | 0.0 | 0.0 | 0.00 | 0.00 | 0.00 | 76 | 1023.4 |
| 20260831060557 | 13 | 196 | 0.0 | 0.0 | 0.00 | 0.00 | 0.00 | 75 | 1023.7 |
| 20260831060057 | 14 | 200 | 0.0 | 0.0 | 0.00 | 0.00 | 0.00 | 76 | 1023.8 |
| 20260831055556 | 13 | 199 | 0.0 | 0.0 | 0.00 | 0.00 | 0.00 | 77 | 1023.6 |
| 20260831055052 | 14 | 197 | 0.0 | 0.0 | 0.00 | 0.00 | 0.00 | 75 | 1023.7 |
| 20260831054551 | 14 | 190 | 0.0 | 0.0 | 0.00 | 0.00 | 0.00 | 76 | 1023.6 |
| 20260831054051 | 15 | 203 | 0.0 | 0.0 | 0.00 | 0.00 | 0.00 | 78 | 1023.6 |
| 20260831053549 | 15 | 199 | 0.0 | 0.0 | 0.00 | 0.00 | 0.00 | 77 | 1023.8 |
| 20260831053044 | 15 | 209 | 0.0 | 0.0 | 0.00 | 0.00 | 0.00 | 77 | 1023.7 |
| 20260831052543 | 15 | 214 | 0.0 | 0.0 | 0.00 | 0.00 | 0.00 | 75 | 1023.7 |
| 20260831052044 | 15 | 196 | 0.0 | 0.0 | 0.00 | 0.00 | 0.00 | 74 | 1023.7 |
| 20260831051542 | 15 | 197 | 0.0 | 0.0 | 0.00 | 0.00 | 0.00 | 75 | 1023.7 |
| 20260831051041 | 15 | 208 | 0.0 | 0.0 | 0.00 | 0.00 | 0.00 | 75 | 1023.7 |
| 20260831050541 | 16 | 198 | 0.0 | 0.0 | 0.00 | 0.00 | 0.00 | 74 | 1023.7 |
| 20260831050039 | 16 | 197 | 0.0 | 0.0 | 0.00 | 0.00 | 0.00 | 74 | 1023.7 |
| 20260831045539 | 16 | 166 | 3.2 | 3.2 | 0.00 | 0.00 | 0.00 | 73 | 1023.6 |
| 20260831045035 | 16 | 171 | 4.8 | 4.8 | 0.00 | 0.00 | 0.00 | 74 | 1024.0 |
| 20260831044530 | 16 | 151 | 6.4 | 8.0 | 0.00 | 0.00 | 0.00 | 74 | 1024.3 |
| 20260831044025 | 16 | 170 | 1.6 | 3.2 | 0.00 | 0.00 | 0.00 | 75 | 1024.3 |
| 20260831043525 | 16 | 202 | 0.0 | 0.0 | 0.00 | 0.00 | 0.00 | 74 | 1024.1 |
| 20260831043021 | 16 | 195 | 0.0 | 0.0 | 0.00 | 0.00 | 0.00 | 74 | 1024.3 |
| 20260831042520 | 16 | 169 | 0.0 | 0.0 | 0.00 | 0.00 | 0.00 | 74 | 1024.1 |
| 20260831042015 | 16 | 193 | 3.2 | 3.2 | 0.00 | 0.00 | 0.00 | 74 | 1024.4 |
| 20260831041510 | 16 | 195 | 6.4 | 8.0 | 0.00 | 0.00 | 0.00 | 74 | 1024.4 |
| 20260831041009 | 16 | 208 | 4.8 | 4.8 | 0.00 | 0.00 | 0.00 | 75 | 1024.3 |
| 20260831040504 | 16 | 194 | 3.2 | 3.2 | 0.00 | 0.00 | 0.00 | 75 | 1024.4 |
| 20260831040003 | 16 | 205 | 3.2 | 3.2 | 0.00 | 0.00 | 0.00 | 75 | 1024.4 |
| 20260831035501 | 16 | 208 | 0.0 | 1.6 | 0.00 | 0.00 | 0.00 | 75 | 1024.3 |
| 20260831034957 | 16 | 197 | 1.6 | 1.6 | 0.00 | 0.00 | 0.00 | 75 | 1024.5 |
| 20260831034451 | 16 | 201 | 0.0 | 1.6 | 0.00 | 0.00 | 0.00 | 74 | 1023.8 |
| 20260831033946 | 16 | 226 | 4.8 | 4.8 | 0.00 | 0.00 | 0.00 | 74 | 1024.0 |
| 20260831033442 | 16 | 231 | 1.6 | 3.2 | 0.00 | 0.00 | 0.00 | 74 | 1024.1 |
| 20260831032937 | 16 | 211 | 6.4 | 8.0 | 0.00 | 0.00 | 0.00 | 74 | 1023.9 |
| 20260831032437 | 16 | 202 | 3.2 | 4.8 | 0.00 | 0.00 | 0.00 | 73 | 1023.9 |
| 20260831031933 | 17 | 199 | 6.4 | 9.7 | 0.00 | 0.00 | 0.00 | 73 | 1023.6 |
| 20260831031432 | 17 | 220 | 3.2 | 3.2 | 0.00 | 0.00 | 0.00 | 70 | 1023.7 |
| 20260831030931 | 17 | 278 | 4.8 | 9.7 | 0.00 | 0.00 | 0.00 | 70 | 1023.2 |
| 20260831030431 | 17 | 263 | 6.4 | 9.7 | 0.00 | 0.00 | 0.00 | 68 | 1023.4 |
| 20260831025929 | 18 | 290 | 8.0 | 14.5 | 0.00 | 0.00 | 0.00 | 66 | 1023.3 |
| 20260831025429 | 18 | 272 | 11.3 | 12.9 | 0.00 | 0.00 | 0.00 | 64 | 1022.8 |
| 20260831024925 | 19 | 184 | 3.2 | 3.2 | 0.00 | 0.00 | 0.00 | 59 | 1022.7 |
| 20260831024424 | 19 | 185 | 1.6 | 3.2 | 0.00 | 0.00 | 0.00 | 60 | 1022.5 |
| 20260831023919 | 19 | 166 | 4.8 | 4.8 | 0.00 | 0.00 | 0.00 | 61 | 1022.4 |
| 20260831023417 | 18 | 128 | 3.2 | 3.2 | 0.00 | 0.00 | 0.00 | 61 | 1022.0 |
| 20260831022913 | 18 | 139 | 4.8 | 4.8 | 0.00 | 0.00 | 0.00 | 61 | 1022.1 |
| 20260831022411 | 18 | 122 | 6.4 | 8.0 | 0.00 | 0.00 | 0.00 | 61 | 1022.1 |
| 20260831021906 | 20 | 115 | 4.8 | 4.8 | 0.00 | 0.00 | 0.00 | 59 | 1021.9 |
| 20260831021405 | 20 | 152 | 6.4 | 8.0 | 0.00 | 0.00 | 0.00 | 56 | 1022.0 |
| 20260831020902 | 20 | 165 | 6.4 | 8.0 | 0.00 | 0.00 | 0.00 | 52 | 1021.8 |
| 20260831020401 | 20 | 180 | 1.6 | 1.6 | 0.00 | 0.00 | 0.00 | 53 | 1021.8 |
| 20260831015856 | 21 | 194 | 6.4 | 8.0 | 0.00 | 0.00 | 0.00 | 53 | 1021.7 |
| 20260831015352 | 20 | 188 | 4.8 | 4.8 | 0.00 | 0.00 | 0.00 | 53 | 1021.4 |
| 20260831014852 | 21 | 203 | 4.8 | 4.8 | 0.00 | 0.00 | 0.00 | 53 | 1021.6 |
| 20260831014347 | 21 | 195 | 8.0 | 11.3 | 0.00 | 0.00 | 0.00 | 52 | 1021.3 |
| 20260831013843 | 21 | 181 | 4.8 | 4.8 | 0.00 | 0.00 | 0.00 | 53 | 1021.6 |
| 20260831013338 | 21 | 262 | 4.8 | 8.0 | 0.00 | 0.00 | 0.00 | 52 | 1021.6 |
| 20260831012832 | 21 | 283 | 8.0 | 11.3 | 0.00 | 0.00 | 0.00 | 51 | 1021.3 |
| 20260831012328 | 22 | 265 | 6.4 | 9.7 | 0.00 | 0.00 | 0.00 | 50 | 1021.3 |
| 20260831011827 | 22 | 264 | 3.2 | 4.8 | 0.00 | 0.00 | 0.00 | 49 | 1021.4 |
| 20260831011322 | 23 | 206 | 6.4 | 8.0 | 0.00 | 0.00 | 0.00 | 49 | 1021.3 |
| 20260831010818 | 23 | 197 | 9.7 | 11.3 | 0.00 | 0.00 | 0.00 | 47 | 1020.9 |
| 20260831010318 | 23 | 188 | 4.8 | 4.8 | 0.00 | 0.00 | 0.00 | 44 | 1020.5 |
| 20260831005814 | 23 | 189 | 1.6 | 1.6 | 0.00 | 0.00 | 0.00 | 44 | 1020.3 |
| 20260831005309 | 23 | 212 | 1.6 | 1.6 | 0.00 | 0.00 | 0.00 | 45 | 1020.3 |
| 20260831004804 | 23 | 114 | 4.8 | 4.8 | 0.00 | 0.00 | 0.00 | 44 | 1020.0 |
| 20260831004300 | 23 | 191 | 1.6 | 1.6 | 0.00 | 0.00 | 0.00 | 46 | 1019.9 |
| 20260831003755 | 23 | 206 | 9.7 | 12.9 | 0.00 | 0.00 | 0.00 | 43 | 1020.0 |
| 20260831003252 | 23 | 171 | 4.8 | 8.0 | 0.00 | 0.00 | 0.00 | 44 | 1020.2 |
| 20260831002751 | 23 | 135 | 6.4 | 8.0 | 0.00 | 0.00 | 0.00 | 46 | 1020.2 |
| 20260831002250 | 23 | 117 | 6.4 | 8.0 | 0.00 | 0.00 | 0.00 | 46 | 1019.9 |
| 20260831001746 | 23 | 157 | 8.0 | 9.7 | 0.00 | 0.00 | 0.00 | 47 | 1020.3 |
| 20260831001242 | 23 | 161 | 4.8 | 4.8 | 0.00 | 0.00 | 0.00 | 47 | 1020.3 |